Weather reports worldwide

Advertisment
Toulouse/Blagnac, France (7630): temperature & dewpoint: 15.05.2019 13:00:00 - 21.05.2019 13:00:00 (CEST)Toulouse/Blagnac, France (7630): temperature 5cm: 15.05.2019 13:00:00 - 21.05.2019 13:00:00 (CEST)Toulouse/Blagnac, France (7630): temperature -20cm & temperature -100cm: 15.05.2019 13:00:00 - 21.05.2019 13:00:00 (CEST)Toulouse/Blagnac, France (7630): wind speed & gusts: 15.05.2019 13:00:00 - 21.05.2019 13:00:00 (CEST)Toulouse/Blagnac, France (7630): wind direction: 15.05.2019 13:00:00 - 21.05.2019 13:00:00 (CEST)Toulouse/Blagnac, France (7630): reduced air pressure: 15.05.2019 13:00:00 - 21.05.2019 13:00:00 (CEST)Toulouse/Blagnac, France (7630): visibility: 15.05.2019 13:00:00 - 21.05.2019 13:00:00 (CEST)Toulouse/Blagnac, France (7630): sunshine duration: 15.05.2019 13:00:00 - 21.05.2019 13:00:00 (CEST)Toulouse/Blagnac, France (7630): precipitation: 15.05.2019 13:00:00 - 21.05.2019 13:00:00 (CEST)
Date & Time tt [°C] td [°C] tt 5cm [°C] tt -20cm [°C] tt -100cm [°C] ff [km/h] ff [kn] fx [km/h] fx [kn] dd ppp [hPa] vv [km] sd [min] rr [mm]
21.05.2019 13:00:00 17,5 10,1 19,9 15,0 14,2 18 10 31 17 NW 1018,4 12 17 0,0
21.05.2019 12:00:00 16,9 11,6 21,4 14,8 14,2 17 9 31 17 NW 1018,3 7 49 0,0
21.05.2019 11:00:00 15,2 11,8 19,9 14,7 14,2 14 8 23 13 NW 1018,4 6 52 0,0
21.05.2019 10:00:00 13,1 11,0 14,0 14,8 14,3 12 7 19 11 WNW 1018,5 5 18 0,0
21.05.2019 09:00:00 11,0 10,4 10,7 14,9 14,3 10 5 19 10 NW 1018,4 4,4 0 0,0
21.05.2019 08:00:00 10,5 10,2 8,6 15,0 14,3 10 6 18 10 WNW 1017,9 4,2 4 0,0
21.05.2019 07:00:00 9,1 8,6 6,4 15,2 14,2 4 2 14 7 SSW 1017,5 8 12 0,0
21.05.2019 06:00:00 8,4 7,8 4,6 15,3 14,2 8 5 10 5 S 1017,1 11 0 0,0
21.05.2019 05:00:00 8,7 7,6 4,8 15,5 14,2 6 3 9 5 SSW 1017,0 15 0 0,0
21.05.2019 04:00:00 9,3 8,2 6,8 15,6 14,2 5 3 11 6 S 1016,9 19 0 0,0
21.05.2019 03:00:00 10,1 9,0 8,1 15,8 14,2 6 3 11 6 S 1016,9 19 0 0,0
21.05.2019 02:00:00 11,4 9,0 9,3 16,0 14,2 7 4 22 12 WSW 1016,9 25 0 0,0
21.05.2019 01:00:00 12,3 9,1 10,8 16,1 14,3 14 8 23 12 W 1017,1 32 0 0,0
21.05.2019 00:00:00 12,8 9,2 11,4 16,2 14,3 16 9 24 13 W 1016,8 33 0 0,0
20.05.2019 23:00:00 13,8 9,0 11,7 16,3 14,3 16 9 23 12 W 1016,3 38 0 0,0
20.05.2019 22:00:00 14,3 9,3 12,6 16,4 14,3 11 6 22 12 NW 1015,5 17 0 0,0
20.05.2019 21:00:00 15,3 8,8 14,5 16,3 14,2 16 9 31 17 NW 1015,0 25 31 0,0
20.05.2019 20:00:00 17,3 7,9 19,2 16,2 14,2 24 13 38 21 NW 1014,4 10 60 0,0
20.05.2019 19:00:00 18,3 9,1 19,8 16,0 14,3 31 17 49 26 NW 1014,1 11 47 0,0
20.05.2019 18:00:00 19,7 7,4 25,6 15,7 14,2 23 12 41 22 WNW 1013,6 14 60 0,0
20.05.2019 17:00:00 19,8 8,2 21,6 15,4 14,3 21 11 37 20 WNW 1013,5 16 54 0,0
20.05.2019 16:00:00 19,3 9,5 21,5 15,1 14,3 17 9 35 19 W 1013,8 14 39 0,0
20.05.2019 15:00:00 18,8 7,9 21,9 14,8 14,2 21 11 37 20 W 1014,1 14 28 0,0
20.05.2019 14:00:00 17,9 9,0 21,8 14,5 14,2 20 11 36 20 W 1014,5 10 32 0,0
20.05.2019 13:00:00 17,0 10,4 18,0 14,3 14,2 25 13 37 20 W 1014,6 10 33 0,0
20.05.2019 12:00:00 15,2 8,7 17,6 14,2 14,2 22 12 36 19 W 1014,8 12 22 0,0
20.05.2019 11:00:00 14,9 9,0 15,3 14,2 14,3 18 10 36 20 W 1014,8 14 22 0,0
20.05.2019 10:00:00 14,2 9,0 14,5 14,2 14,3 22 12 34 18 WNW 1014,8 11 35 0,0
20.05.2019 09:00:00 12,6 9,2 12,0 14,2 14,3 21 12 34 18 W 1014,7 11 27 0,0
20.05.2019 08:00:00 11,3 9,7 11,1 14,3 14,3 14 7 22 12 W 1014,4 11 0 0,0
20.05.2019 07:00:00 11,3 9,7 10,5 14,4 14,2 15 8 23 13 W 1014,0 10 0 0,0
20.05.2019 06:00:00 10,7 9,6 9,6 14,5 14,3 10 5 24 13 WNW 1013,8 9 0 0,0
20.05.2019 05:00:00 10,7 9,5 9,2 14,6 14,3 14 8 25 13 W 1013,6 10 0 0,0
20.05.2019 04:00:00 10,8 9,2 9,7 14,6 14,2 16 9 33 18 W 1013,5 11 0 0,0
20.05.2019 03:00:00 11,5 9,2 10,6 14,7 14,3 22 12 36 19 W 1013,8 14 0 0,0
20.05.2019 02:00:00 12,1 10,0 11,7 14,8 14,2 21 11 39 21 W 1013,9 13 0 0,0
20.05.2019 01:00:00 12,2 10,1 11,7 14,9 14,3 22 12 38 21 W 1013,9 16 0 0,0
20.05.2019 00:00:00 12,2 9,9 11,6 14,9 14,2 26 14 42 23 W 1013,6 20 0 0,0
19.05.2019 23:00:00 12,2 9,6 11,5 15,0 14,3 23 13 34 19 W 1013,6 29 0 0,0
19.05.2019 22:00:00 12,4 10,1 11,0 15,1 14,3 20 11 35 19 W 1012,9 29 0 0,0
19.05.2019 21:00:00 12,8 10,9 11,7 15,0 14,2 23 12 40 22 W 1012,1 12 0 0,2
19.05.2019 20:00:00 13,4 10,0 13,7 15,0 14,2 23 13 39 21 W 1011,5 22 0 0,0
19.05.2019 19:00:00 14,1 9,9 15,2 15,0 14,2 26 14 40 21 W 1011,2 26 0 0,0
19.05.2019 18:00:00 13,9 9,1 14,4 14,9 14,2 29 16 42 23 W 1011,1 26 5 0,0
19.05.2019 17:00:00 15,1 9,7 15,8 14,7 14,2 27 15 40 22 W 1010,8 22 11 0,0
19.05.2019 16:00:00 14,4 10,4 12,1 14,6 14,2 22 12 36 19 W 1010,7 15 0 0,6
19.05.2019 15:00:00 14,9 8,8 14,7 14,5 14,3 17 9 34 18 WNW 1010,5 15 0 0,0
19.05.2019 14:00:00 15,5 8,7 17,6 14,3 14,2 16 9 32 17 NW 1010,5 28 14 0,0
19.05.2019 13:00:00 14,3 8,9 17,3 14,2 14,3 17 9 31 17 W 1010,5 35 0 0,0
19.05.2019 12:00:00 13,5 8,8 15,5 14,2 14,3 17 9 28 15 WNW 1010,7 40 0 0,0
19.05.2019 11:00:00 12,7 9,0 14,9 14,1 14,3 13 7 22 12 W 1010,6 39 0 0,0
19.05.2019 10:00:00 11,5 8,4 12,7 14,1 14,2 14 8 22 12 W 1010,6 57 0 0,0
19.05.2019 09:00:00 10,6 8,4 10,3 14,2 14,3 15 8 22 12 WNW 1010,6 40 0 0,0
19.05.2019 08:00:00 9,8 7,7 9,0 14,3 14,3 11 6 17 9 WNW 1010,5 47 0 0,0
19.05.2019 07:00:00 9,3 7,1 8,9 14,4 14,3 8 4 14 8 WNW 1010,3 50 0 0,0
19.05.2019 06:00:00 9,5 7,1 8,8 14,5 14,2 8 4 11 6 NW 1010,0 57 0 0,0
19.05.2019 05:00:00 8,9 7,3 6,4 14,6 14,2 2 1 8 4 S 1010,0 37 0 0,0
19.05.2019 04:00:00 8,4 6,5 4,5 14,7 14,2 3 2 10 6 S 1010,1 51 0 0,0
19.05.2019 03:00:00 7,8 5,9 5,0 14,8 14,2 6 3 12 7 SSW 1010,4 53 0 0,0
19.05.2019 02:00:00 8,8 6,4 7,1 15,0 14,3 9 5 16 9 SW 1010,7 48 0 0,0
19.05.2019 01:00:00 9,2 6,8 7,8 15,1 14,2 9 5 20 11 WSW 1011,1 49 0 0,0
19.05.2019 00:00:00 10,4 7,8 9,7 15,1 14,2 12 7 21 11 WSW 1011,3 46 0 0,0
18.05.2019 23:00:00 10,8 8,7 9,6 15,3 14,2 11 6 26 14 W 1011,4 40 0 0,0
18.05.2019 22:00:00 10,9 9,2 9,9 15,3 14,2 17 9 33 18 W 1011,1 25 0 0,2
18.05.2019 21:00:00 12,4 7,7 11,8 15,3 14,2 23 12 37 20 W 1010,4 59 23 0,0
18.05.2019 20:00:00 13,0 7,9 12,8 15,3 14,2 21 12 43 23 WNW 1009,7 39 3 0,0
18.05.2019 19:00:00 13,7 7,7 14,7 15,2 14,2 29 16 51 28 WNW 1009,4 25 15 0,0
18.05.2019 18:00:00 15,2 7,7 16,2 15,0 14,2 23 12 45 24 W 1008,7 28 13 0,0
18.05.2019 17:00:00 15,1 7,9 17,0 14,8 14,2 24 13 44 24 W 1008,3 28 0 0,0
18.05.2019 16:00:00 16,6 7,0 20,8 14,6 14,2 28 15 44 24 W 1007,9 16 51 0,0
18.05.2019 15:00:00 16,9 7,8 17,8 14,4 14,2 22 12 40 22 W 1007,9 22 34 0,0
18.05.2019 14:00:00 16,2 7,1 15,0 14,3 14,2 23 13 39 21 W 1008,2 26 17 0,0
18.05.2019 13:00:00 14,0 7,5 15,4 14,2 14,2 21 11 38 20 WNW 1008,8 30 9 0,0
18.05.2019 12:00:00 14,3 7,8 13,9 14,2 14,2 26 14 42 23 WNW 1008,7 30 6 0,0
18.05.2019 11:00:00 12,4 7,3 13,4 14,3 14,2 28 15 40 22 W 1008,9 39 3 0,2
18.05.2019 10:00:00 11,7 7,8 11,9 14,3 14,2 26 14 44 24 W 1008,9 20 14 0,0
18.05.2019 09:00:00 10,7 8,1 10,5 14,3 14,2 26 14 40 22 W 1008,9 33 0 0,0
18.05.2019 08:00:00 10,3 8,2 9,4 14,4 14,2 22 12 38 20 W 1009,1 42 0 0,0
18.05.2019 07:00:00 10,0 8,4 9,4 14,5 14,2 22 12 39 21 W 1008,8 25 0 0,0
18.05.2019 06:00:00 10,1 8,5 9,3 14,6 14,2 24 13 36 19 W 1008,4 35 0 0,0
18.05.2019 05:00:00 10,4 8,7 9,8 14,6 14,1 18 10 33 18 W 1008,3 41 0 0,0
18.05.2019 04:00:00 10,8 9,1 10,1 14,7 14,2 20 11 34 18 W 1008,6 26 0 0,0
18.05.2019 03:00:00 11,1 9,2 10,5 14,8 14,1 20 11 35 19 WSW 1008,9 22 0 0,0
18.05.2019 02:00:00 11,3 9,6 10,6 14,9 14,1 25 14 35 19 W 1009,1 17 0 0,0
18.05.2019 01:00:00 11,5 10,1 10,3 15,0 14,1 21 11 31 17 W 1009,0 16 0 0,0
18.05.2019 00:00:00 11,0 9,7 10,0 15,1 14,2 14 8 29 16 W 1009,1 16 0 0,2
17.05.2019 23:00:00 10,9 9,5 10,0 15,2 14,1 21 11 41 22 WSW 1008,9 13 0 0,2
17.05.2019 22:00:00 11,2 9,3 10,3 15,3 14,1 27 15 41 22 W 1008,3 16 0 2,8
17.05.2019 21:00:00 11,2 9,9 10,3 15,3 14,1 29 16 42 23 NW 1007,8 3,0 0 1,4
17.05.2019 20:00:00 12,9 10,8 11,8 15,3 14,1 22 12 38 21 WSW 1006,7 12 0 0,2
17.05.2019 19:00:00 13,2 10,9 13,1 15,4 14,1 22 12 45 24 WSW 1006,3 22 0 0,0
17.05.2019 18:00:00 12,9 11,0 11,8 15,4 14,1 26 14 40 22 W 1006,4 31 0 0,6
17.05.2019 17:00:00 12,5 11,1 11,6 15,5 14,1 22 12 38 21 W 1006,4 3,8 0 0,2
17.05.2019 16:00:00 12,1 10,8 11,5 15,5 14,1 27 14 51 27 WNW 1005,9 4,1 0 0,6
17.05.2019 15:00:00 12,1 10,3 12,2 15,5 14,1 29 15 50 27 W 1005,2 29 0 0,0
17.05.2019 14:00:00 12,2 10,9 12,7 15,5 14,1 32 18 49 26 W 1004,2 19 0 0,0
17.05.2019 13:00:00 12,7 11,6 12,3 15,5 14,0 26 14 38 20 W 1003,4 3,4 0 0,2
17.05.2019 12:00:00 12,2 11,7 12,2 15,6 14,1 16 8 24 13 W 1002,6 3,9 0 0,8
17.05.2019 11:00:00 12,0 11,7 11,6 15,7 14,1 20 11 27 15 NW 1002,2 2,8 0 0,8
17.05.2019 10:00:00 11,6 11,3 11,4 15,8 14,0 17 9 25 14 NW 1002,3 1,8 0 1,8
17.05.2019 09:00:00 11,4 11,1 10,9 16,0 14,1 15 8 32 17 NNW 1002,2 1,9 0 2,6
17.05.2019 08:00:00 11,5 11,0 11,2 16,1 14,0 17 9 29 16 N 1002,0 2,6 0 4,8
17.05.2019 07:00:00 11,9 11,3 11,6 16,2 14,0 17 9 28 15 N 1001,7 2,5 0 2,3
17.05.2019 06:00:00 12,5 11,7 11,8 16,3 14,0 14 8 24 13 N 1002,0 6 0 3,0
17.05.2019 05:00:00 13,3 11,4 11,9 16,4 14,0 10 5 17 9 ENE 1002,2 4,2 0 1,2
17.05.2019 04:00:00 13,4 10,7 11,9 16,5 14,0 10 6 24 13 SSE 1002,9 10 0 0,0
17.05.2019 03:00:00 13,6 10,6 12,4 16,6 14,0 16 8 29 16 SE 1003,8 15 0 0,0
17.05.2019 02:00:00 13,8 10,6 12,5 16,8 14,0 13 7 21 11 SSE 1005,3 14 0 0,0
17.05.2019 01:00:00 14,7 9,3 14,1 16,9 14,0 16 8 27 15 S 1006,1 21 0 0,0
17.05.2019 00:00:00 15,1 8,1 14,2 17,1 14,0 13 7 26 14 SSE 1006,1 22 0 0,0
16.05.2019 23:00:00 15,5 6,5 13,6 17,1 14,0 12 7 22 12 SSE 1006,5 23 0 0,0
16.05.2019 22:00:00 16,5 6,3 15,0 17,2 14,0 16 8 33 18 SSE 1006,2 24 0 0,0
16.05.2019 21:00:00 18,5 6,0 17,5 17,2 14,0 16 8 31 17 SSE 1005,6 27 15 0,0
16.05.2019 20:00:00 20,5 6,1 20,5 17,1 14,0 19 10 29 16 SE 1005,4 16 6 0,0
16.05.2019 19:00:00 23,3 2,7 27,6 16,8 13,9 7 4 19 10 SSE 1005,2 34 48 0,0
16.05.2019 18:00:00 24,2 4,0 29,9 16,6 14,0 6 3 22 12 S 1005,7 43 50 0,0
16.05.2019 17:00:00 23,3 4,3 27,9 16,2 14,0 17 9 27 15 SE 1006,4 27 35 0,0
16.05.2019 16:00:00 23,1 3,6 27,7 15,8 13,9 5 3 18 10 SSE 1007,0 19 27 0,0
16.05.2019 15:00:00 22,5 3,1 28,7 15,4 14,0 7 4 19 10 E 1007,8 28 34 0,0
16.05.2019 14:00:00 22,4 4,9 31,8 14,9 13,9 9 5 24 13 ESE 1008,4 33 57 0,0
16.05.2019 13:00:00 21,1 4,6 29,9 14,6 13,9 7 4 23 12 E 1009,3 36 60 0,0
16.05.2019 12:00:00 19,9 5,5 27,6 14,4 13,9 7 4 17 9 ENE 1010,1 20 56 0,0
16.05.2019 11:00:00 17,9 5,5 23,7 14,3 13,9 11 6 33 18 E 1010,8 29 60 0,0
16.05.2019 10:00:00 15,6 3,7 22,6 14,3 13,9 16 9 26 14 SE 1011,6 35 60 0,0
16.05.2019 09:00:00 12,6 4,8 13,2 14,5 13,9 4 2 12 6 S 1012,2 29 60 0,0
16.05.2019 08:00:00 9,0 5,6 5,8 14,6 13,9 4 2 9 5 S 1012,3 35 14 0,0
16.05.2019 07:00:00 7,9 4,5 3,0 14,7 13,9 6 4 9 5 S 1012,7 26 5 0,0
16.05.2019 06:00:00 9,2 3,0 3,8 14,9 13,9 5 3 14 8 SSE 1012,5 43 0 0,0
16.05.2019 05:00:00 10,9 2,5 3,9 15,1 13,9 7 4 14 7 ESE 1012,8 50 0 0,0
16.05.2019 04:00:00 11,0 3,3 4,1 15,2 13,9 4 2 11 6 NE 1013,4 58 0 0,0
16.05.2019 03:00:00 12,4 3,1 6,9 15,4 13,9 5 3 11 6 NE 1013,8 58 0 0,0
16.05.2019 02:00:00 13,2 3,0 9,0 15,5 13,9 6 3 19 10 N 1014,0 59 0 0,0
16.05.2019 01:00:00 14,4 2,6 9,5 15,6 13,9 8 4 15 8 NNE 1014,2 59 0 0,0
16.05.2019 00:00:00 15,8 1,5 11,8 15,8 13,9 8 4 18 10 N 1014,3 56 0 0,0
15.05.2019 23:00:00 16,3 1,2 12,6 15,9 13,9 10 6 18 10 NW 1014,3 59 0 0,0
15.05.2019 22:00:00 17,3 0,9 14,1 15,9 13,9 12 7 21 11 NW 1014,4 60 0 0,0
15.05.2019 21:00:00 20,2 -0,5 18,0 15,8 13,8 14 7 27 14 NNW 1013,6 42 42 0,0
15.05.2019 20:00:00 21,9 -0,8 24,1 15,7 13,9 15 8 27 15 NW 1013,1 24 60 0,0
15.05.2019 19:00:00 22,5 0,9 28,2 15,5 13,9 13 7 29 16 NW 1013,0 25 60 0,0
15.05.2019 18:00:00 22,4 1,9 29,3 15,3 13,9 14 8 35 19 NW 1013,2 25 60 0,0
15.05.2019 17:00:00 22,0 1,6 30,5 15,0 13,8 12 7 32 17 NW 1013,3 23 60 0,0
15.05.2019 16:00:00 21,7 1,3 27,0 14,8 13,9 17 9 35 19 N 1013,7 25 60 0,0
15.05.2019 15:00:00 21,4 1,1 29,8 14,6 13,8 14 8 32 18 NNW 1014,0 29 60 0,0
15.05.2019 14:00:00 20,6 1,4 30,8 14,5 13,8 13 7 31 17 N 1014,5 34 60 0,0
15.05.2019 13:00:00 19,4 2,3 29,6 14,4 13,9 13 7 24 13 N 1014,9 34 60 0,0

tt = temperature
td = dewpoint
tt 5cm = temperature 5cm
tt -20cm = temperature -20cm
tt -100cm = temperature -100cm
ff = wind speed
fx = gusts
dd = wind direction
ppp = reduced air pressure
vv = visibility
sd = sunshine duration
rr = precipitation

Next stations